Tracking 28794 objects as of 19-Apr-2024
HD Live streaming from Space Station
objects crossing your sky now

COSMOS 2251 DEB

Track COSMOS 2251 DEB now!
10-day predictions


NORAD ID: 35824
Int'l Code: 1993-036ASW
Perigee: 760.1 km
Apogee: 1,153.1 km
Inclination: 73.8 °
Period: 104.0 minutes
Semi major axis: 7327 km
RCS: 0.0147 m2 (small)
Launch date: June 16, 1993
Source: Commonwealth of Independent States (former USSR) (CIS)
Launch site: PLESETSK MISSILE AND SPACE COMPLEX (PKMTR)

Note: This is SATELLITE DEBRIS
Your satellite tracking list
Your tracking list is empty




NASA's NSSDC Master Catalog

Two Line Element Set (TLE):
1 35824U 93036ASW 24109.37068111  .00003326  00000-0  22788-2 0  9999
2 35824  73.8468   2.9380 0268195 195.1675 164.1297 13.84072126758641
Source of the keplerian elements: AFSPC